Location: Mason
(37.5237°N, 89.2543°W)
Time: 06:26:43
(UTC+00:00)

AQUARIUS - Pass Details

Date: 24 January 2021
Orbit: 650 x 652 km, 98.0° (Epoch: 08 March)

Event Time Altitude Azimuth Distance (km) Brightness Sun altitude
Rises 12:25:02 0° 10° (N) 2,980 7.5 -8.5°
Reaches altitude 10° 12:27:15 10° 9° (N) 2,065 6.7 -8.0°
Maximum altitude 12:31:45 78° 284° (WNW) 671 4.1 -7.2°
Drops below altitude 10° 12:36:13 10° 198° (SSW) 2,049 6.8 -6.4°
Sets 12:38:25 0° 197° (SSW) 2,955 7.6 -6.0°
